Regional Weather Roundup
Issued by NWS

Home | Current Version | Previous Version | Text Only | Print | Product List | Glossary Off
Versions: 1 2 3 4 5 6 7 8 9 10 11 12 13 14 15 16 17 18 19 20 21 22 23 24 25 26 27 28 29 30 31 32 33 34 35 36 37 38 39 40 41 42 43 44 45 46 47 48 49 50

000
ASUS43 KLOT 202221
RWRIL

ILLINOIS REGIONAL WEATHER ROUNDUP
NATIONAL WEATHER SERVICE CHICAGO/ROMEOVILLE IL
500 PM CDT MON APR 20 2015

NOTE: "FAIR" INDICATES FEW OR NO CLOUDS BELOW 12,000 FEET WITH NO
SIGNIFICANT WEATHER AND/OR OBSTRUCTIONS TO VISIBILITY.

* THESE STATIONS ARE NOT UNDER NWS QUALITY CONTROL. THEY ALSO MAY NOT
  REPORT WEATHER SUCH AS PRECIPITATION OR FOG.

ILZ001-002-007-009-015-016-024-202300-
NORTHWEST ILLINOIS

CITY           SKY/WX    TMP DP  RH WIND       PRES   REMARKS
MOLINE         CLOUDY    49  37  63 W15       29.63R
STERLING*      PTSUNNY  N/A N/A N/A W28G37    29.60R
SAVANNA*       CLOUDY    48  32  54 NW22G32   29.59R
$$

ILZ003-004-008-010-011-017-018-202300-
NORTH CENTRAL ILLINOIS

CITY           SKY/WX    TMP DP  RH WIND       PRES   REMARKS
ROCKFORD       CLOUDY    47  32  56 W17G31    29.56R
FREEPORT*      CLOUDY    44  32  61 W21G32    29.57R
ROCHELLE*      CLOUDY    45  33  64 W23G35    29.58R
DE KALB*       CLOUDY    44  33  66 W25G33    29.56R
PERU*          CLOUDY    49  32  52 W22G35    29.61R
$$

ILZ005-006-012>014-019>023-202300-
NORTHEAST ILLINOIS

CITY           SKY/WX    TMP DP  RH WIND       PRES   REMARKS
CHICAGO-OHARE  CLOUDY    46  34  62 W21G30    29.52R
CHICAGO-MIDWAY CLOUDY    49  34  56 W22G30    29.54R
AURORA         CLOUDY    47  33  58 W23G33    29.56R
LANSING*       CLOUDY    48  32  53 W22G35    29.56R
JOLIET*        CLOUDY    49  34  56 W16G26    29.58R
WAUKEGAN       CLOUDY    44  34  67 W14G29    29.50R
DUPAGE AIRPORT CLOUDY    47  34  60 W29G36    29.54R
KANKAKEE*      CLOUDY    48  37  64 W24G33    29.60R
WHEELING       CLOUDY    46  33  60 W21G28    29.53R
MORRIS*        CLOUDY    47  34  59 W28G33    29.57R
ROMEOVILLE*    CLOUDY    47  33  58 W24G35    29.57R
NORTHERLY ISL    N/A     47  33  58 W12         N/A
$$

LMZ740>746-202300-
SOUTHERN LAKE MICHIGAN

STATION/POSITION SKY/WX   TEMP    WIND        PRES    VSBY  WAVE
                          AIR SEA DIR/SP/G                  HT/PER
                          (F)     (DEG/KT/KT) (MB)    (MI)  (FT/S)
HARRISON CRIB              46     260/ 25/ 30   N/A
BURNHAM HARBOR             47     270/ 17/ 22   N/A
CALUMET HARBOR             48     250/ 12/ 22   N/A
BURNS HARBOR               48     270/ 23     1000.3R
MICHIGAN CITY              46     230/ 26/ 29   N/A
MICHIGAN CITY 6N           46 44  270/ 17/ 25   N/A           6/ 5
$$

ILZ025>027-034>036-040-047-049-050-058-095>099-202300-
WEST-CENTRAL ILLINOIS

CITY           SKY/WX    TMP DP  RH WIND       PRES   REMARKS
QUINCY         LGT RAIN  51  33  50 W15G30    29.73S
GALESBURG*     CLOUDY    49  34  56 W20G30    29.66S
MACOMB*        CLOUDY    53  34  48 W18G29    29.71S
JACKSONVILLE*  CLOUDY    53  37  55 W15G26    29.73S
PITTSFIELD*    CLOUDY    53  32  45 W15G26    29.75R
$$

ILZ028>032-037-038-041>044-048-051>054-059>061-202300-
CENTRAL ILLINOIS

CITY           SKY/WX    TMP DP  RH WIND       PRES   REMARKS
PONTIAC        CLOUDY    49  36  60 W28G36    29.63R
BLOOMINGTON    CLOUDY    49  35  58 W18G30    29.67R
DECATUR        CLOUDY    51  34  52 W17G28    29.70R
PEORIA         CLOUDY    51  30  44 W16G28    29.67R
LACON*         CLOUDY    50  32  51 W14G26    29.64R
LINCOLN*       CLOUDY    51  35  53 W9G22     29.69R
SPRINGFIELD    CLOUDY    52  35  52 W22G36    29.72R
TAYLORVILLE    CLOUDY    50  34  53 W20G30    29.73R
$$

ILZ033-039-045-046-055>057-062-063-202300-
EAST-CENTRAL ILLINOIS

CITY           SKY/WX    TMP DP  RH WIND       PRES   REMARKS
CHAMPAIGN      CLOUDY    49  36  61 W24G31    29.68R
DANVILLE*      CLOUDY    49  38  65 W25G35    29.62R
RANTOUL*       CLOUDY    50  38  62 W23G33    29.66R
MATTOON        CLOUDY    50  35  56 W21G26    29.71R
PARIS*         CLOUDY    50  41  71 W16G30    29.71R
$$

ILZ079-100>102-202300-
SOUTHWEST ILLINOIS

CITY           SKY/WX    TMP DP  RH WIND       PRES   REMARKS
ALTON          CLOUDY    54  28  37 W14G28    29.76R
BELLEVILLE     CLOUDY    56  33  42 NW14G24   29.76R
CAHOKIA*       CLOUDY    56  34  43 NW18G26   29.77R
SPARTA*        CLOUDY    57  35  43 W17G28    29.78R
$$

ILZ064>066-069>071-074>076-080>082-084>086-088>090-092>094-202300-
SOUTH-CENTRAL ILLINOIS

CITY           SKY/WX    TMP DP  RH WIND       PRES   REMARKS
CARBONDALE     PTSUNNY   59  34  39 W9G22     29.76R
CAIRO*         PTSUNNY   62  39  42 W15       29.76S
EFFINGHAM*     CLOUDY    53  33  47 W16G23    29.75R
MARION         PTSUNNY   61  36  39 NW17      29.77R
MT. VERNON     CLOUDY    57  36  44 W12G17    29.77R
CENTRALIA*     PTSUNNY   56  34  42 W15G23    29.75S
SALEM*         CLOUDY    56  35  43 W18G31    29.75S
METROPOLIS*    PTSUNNY   63  37  37 W10G18    29.75S
$$

ILZ067-068-072-073-078-083-087-091-202300-
SOUTHEAST ILLINOIS

CITY           SKY/WX    TMP DP  RH WIND       PRES   REMARKS
LAWRENCEVILLE  CLOUDY    56  37  49 W17G29    29.73R
FLORA*         CLOUDY    55  35  48 W15G29    29.75R
FAIRFIELD*     PTSUNNY   57  36  46 W7G20     29.74S
HARRISBURG*    PTSUNNY   58  37  44 W16G22    29.77R
ROBINSON*      CLOUDY    54  37  52 W20G28    29.73R
CARMI*         PTSUNNY   58  35  43 NW16G24   29.75R
$$

ABBREVIATIONS USED IN REMARKS
   TC - TEMPERATURE IN CELSIUS
  WCI - WIND CHILL INDEX
   HX - HEAT INDEX
  VSB - VISIBILITY
$$




USA.gov is the U.S. government's official web portal to all federal, state and local government web resources and services.